FW6587 Weather Reports


time (UTC)temp
C
wind
direction
speed
KPH
gust
KPH
rain 1hr
cm
rain 24hr
cm
rain mn
cm
humidity
%
barometer
mb
20260505101556 4 241 1.6 9.7 0.00 0.56 0.00 88 1021.6
20260505100059 5 47 1.6 14.5 0.00 0.56 0.00 88 1021.3
20260505094557 5 46 3.2 14.5 0.00 0.56 0.00 88 1021.0
20260505093102 5 0 3.2 14.5 0.00 0.56 0.00 87 1021.0
20260505091603 5 266 4.8 17.7 0.00 0.56 0.00 87 1021.1
20260505090051 5 10 1.6 14.5 0.00 0.56 0.00 87 1020.6
20260505084556 6 84 3.2 11.3 0.00 0.56 0.00 86 1020.8
20260505083101 6 286 3.2 12.9 0.00 0.56 0.00 86 1020.8
20260505081604 7 297 0.0 6.4 0.00 0.56 0.00 87 1020.9
20260505080053 7 0 0.0 0.0 0.00 0.56 0.00 87 1020.7
20260505074558 7 0 0.0 0.0 0.00 0.56 0.00 86 1020.4
20260505073136 7 0 0.0 0.0 0.00 0.56 0.00 86 1020.6
20260505071602 7 0 0.0 0.0 0.00 0.56 0.00 86 1020.6
20260505070101 7 0 0.0 0.0 0.00 0.56 0.00 86 1020.7
20260505064552 7 0 0.0 0.0 0.00 0.56 0.00 86 1020.6
20260505063053 7 0 0.0 0.0 0.00 0.56 0.00 85 1020.8
20260505061552 7 0 0.0 0.0 0.00 0.56 0.00 85 1020.6
20260505060058 7 0 0.0 0.0 0.00 0.56 0.00 85 1020.7
20260505054549 7 0 0.0 0.0 0.03 0.56 0.56 84 1020.8
20260505053056 7 0 0.0 0.0 0.03 0.56 0.56 84 1020.7
20260505051558 7 0 0.0 0.0 0.03 0.56 0.56 83 1020.6
20260505041549 7 0 0.0 4.8 0.30 0.53 0.53 82 1021.1
20260505040051 8 0 0.0 3.2 0.43 0.53 0.53 81 1021.3
20260505034554 8 266 0.0 1.6 0.46 0.51 0.51 80 1021.1
20260505033049 8 242 1.6 6.4 0.30 0.36 0.36 79 1021.6
20260505031554 9 264 1.6 17.7 0.18 0.23 0.23 76 1021.3
20260505030055 10 285 1.6 8.0 0.05 0.10 0.10 73 1020.9
20260505024600 10 360 0.0 6.4 0.00 0.05 0.05 68 1020.5
20260505023054 11 302 0.0 6.4 0.00 0.05 0.05 65 1020.1
20260505021551 11 0 0.0 6.4 0.00 0.05 0.05 63 1019.9
20260505020051 12 0 1.6 9.7 0.00 0.05 0.05 59 1019.8
20260505014551 12 0 0.0 3.2 0.00 0.05 0.05 55 1019.8
20260505013116 13 0 0.0 1.6 0.00 0.05 0.05 54 1019.1
20260505011554 13 0 0.0 1.6 0.00 0.05 0.05 53 1019.5
20260505004552 13 0 1.6 12.9 0.00 0.05 0.05 51 1019.4
20260505003053 15 0 1.6 4.8 0.00 0.05 0.05 49 1019.3
20260505001548 15 0 0.0 3.2 0.00 0.05 0.05 45 1019.4
20260505000059 15 0 0.0 6.4 0.00 0.05 0.05 45 1018.9
20260504234549 15 236 1.6 11.3 0.00 0.05 0.05 45 1018.6
20260504233055 15 313 3.2 16.1 0.00 0.05 0.05 45 1018.4
20260504231548 15 268 3.2 11.3 0.00 0.05 0.05 43 1018.4
20260504230059 15 259 1.6 8.0 0.00 0.05 0.05 43 1018.3
20260504224552 16 259 3.2 17.7 0.00 0.05 0.05 43 1018.3
20260504223100 15 286 3.2 12.9 0.00 0.05 0.05 41 1018.4
20260504221550 15 256 1.6 14.5 0.00 0.05 0.05 41 1018.3
20260504220052 16 283 3.2 11.3 0.00 0.05 0.05 39 1018.0
20260504214607 17 202 3.2 14.5 0.00 0.05 0.05 36 1017.4
20260504213058 19 278 3.2 16.1 0.00 0.05 0.05 32 1017.1
20260504211554 18 130 1.6 6.4 0.00 0.05 0.05 32 1017.1
20260504210058 18 139 0.0 3.2 0.00 0.05 0.05 35 1017.1
20260504204553 19 98 3.2 6.4 0.00 0.05 0.05 34 1017.5
20260504203053 17 111 0.0 4.8 0.00 0.05 0.05 41 1017.7
20260504201601 16 0 1.6 8.0 0.05 0.05 0.05 41 1018.3
20260504200053 15 301 3.2 6.4 0.05 0.05 0.05 48 1018.9
20260504194554 15 94 3.2 12.9 0.05 0.05 0.05 55 1018.2
20260504193052 15 111 3.2 12.9 0.05 0.05 0.05 52 1018.8
20260504191558 18 75 3.2 17.7 0.00 0.00 0.00 40 1018.4
20260504190112 20 133 3.2 12.9 0.00 0.00 0.00 22 1017.4
20260504184613 20 0 0.0 6.4 0.00 0.00 0.00 22 1017.1
20260504183052 20 0 0.0 11.3 0.00 0.00 0.00 22 1017.2
20260504181552 20 0 1.6 8.0 0.00 0.00 0.00 22 1017.1
20260504180054 21 0 0.0 12.9 0.00 0.00 0.00 23 1017.2
20260504174554 21 0 1.6 6.4 0.00 0.00 0.00 22 1017.5
20260504173057 22 325 1.6 11.3 0.00 0.00 0.00 21 1017.8
20260504171605 22 67 1.6 9.7 0.00 0.00 0.00 24 1017.9
20260504140110 12 0 0.0 4.8 0.00 0.00 0.00 34 1019.3
20260504120115 7 0 0.0 0.0 0.00 0.00 0.00 45 1018.6
20260504110104 7 0 0.0 4.8 0.00 0.00 0.00 48 1019.0